Weather Roundup
Issued by NWS

Home | Current Version | Previous Version | Graphics & Text | Print | Product List | Glossary Off
Versions: 1 2 3 4 5 6 7 8 9 10 11 12 13 14 15 16 17 18 19 20 21 22 23 24 25 26 27 28 29 30 31 32 33 34 35 36 37 38 39 40 41 42 43 44 45 46 47 48 49 50

000
NZUS93 KARX 272110
HRRWXR

CURRENT HOURLY OBSERVATIONS ACROSS
MUCH OF THE UPPER MISSISSIPPI VALLEY
NATIONAL WEATHER SERVICE LA CROSSE WI
400 PM CDT SUN JUL 27 2014


...SOUTHEAST MINNESOTA...


CITY           SKY/WX    TMP DP  RH WIND       PRES   REMARKS
ROCHESTER      PTSUNNY   74  59  59 NW16G24   29.95R
ROCHESTER/MAYO MOCLDY    74  55  51 NW21G29   29.93R
WINONA         PTSUNNY   73  59  60 NW20G25   29.89R
AUSTIN         PTSUNNY   73  61  64 NW17G26   29.95S
ALBERT LEA     MOSUNNY   70  61  73 NW9G18    29.98S
DODGE CENTER   MOSUNNY   73  59  60 N21G26    29.95R
PRESTON        CLOUDY    71  62  73 NW20G28   29.93R
OWATONNA       MOSUNNY   75  57  53 NW15G22   29.96S
FARIBAULT      MOSUNNY   79  54  41 NW13G22   29.96S
$$

...ELSEWHERE IN MINNESOTA...


CITY           SKY/WX    TMP DP  RH WIND       PRES   REMARKS
MINNEAPOLIS    PTSUNNY   77  59  53 NW21G28   29.94R
INTNL FALLS    CLOUDY    68  51  54 N9G16     30.07R
DULUTH         DRIZZLE   59  54  83 E9        30.03R FOG
RED WING       SUNNY     75  57  53 NW13G21   29.92R
REDWOOD FALLS  PTSUNNY   74  59  59 NW16G28   30.05R
MANKATO        CLOUDY    73  57  56 NW20G26   29.99S
WORTHINGTON    CLOUDY    70  55  60 NW21G28   30.12S
FAIRMONT       PTSUNNY   72  55  56 NW23      30.03S
$$

...SOUTHWEST WISCONSIN...


CITY           SKY/WX    TMP DP  RH WIND       PRES   REMARKS
LA CROSSE      MOSUNNY   76  62  62 NW16      29.86R
PRAIRIE DU CHI CLOUDY    75  54  47 W22G28    29.86R
BOSCOBEL       MOSUNNY   80  57  45 W13G20    29.85R
LONE ROCK      PTSUNNY   78  59  51 NW17G28   29.82R
PLATTEVILLE    PTSUNNY   74  56  53 W12G26    29.86R
FORT MC COY    MOSUNNY   75  58  55 NW17G23   29.86R
CAMP DOUGLAS   MOSUNNY   75  62  63 NW14G23   29.83R
VIROQUA        CLOUDY    71  59  65 NW14G21   29.88R
WIS DELLS      LGT RAIN  67  60  78 NW8       29.82R
$$

...ELSEWHERE IN WISCONSIN...


CITY           SKY/WX    TMP DP  RH WIND       PRES   REMARKS
MILWAUKEE      PTSUNNY   73  57  57 NW14      29.73S
MADISON        PTSUNNY   76  60  57 NW17G25   29.79S
GREEN BAY      CLOUDY    67  61  81 N14       29.76R
EAU CLAIRE     PTSUNNY   74  60  61 N12G23    29.89R
BLACK RVR FLS  MOCLDY    74  57  54 N16G24    29.85R
MEDFORD        PTSUNNY   69  58  69 N16G22    29.88R
WAUSAU         PTSUNNY   71  60  68 N8G20     29.82R
WIS RAPIDS     LGT RAIN  64  61  90 MISG      29.84R
MARSHFIELD     PTSUNNY   73  63  70 N14G26    29.84R
RICE LAKE      CLOUDY    69  58  68 N14       29.96R
$$

...NORTHEAST IOWA...


CITY           SKY/WX    TMP DP  RH WIND       PRES   REMARKS
WATERLOO       CLOUDY    73  59  61 NW16G26   29.94R
DUBUQUE        PTSUNNY   74  59  59 NW18      29.87S
DECORAH        PTSUNNY   73  59  60 NW17      29.90S
MASON CITY     CLOUDY    71  60  68 NW24G32   30.00R
CHARLES CITY   PTSUNNY   72  61  68 NW14G21   29.95S
OELWEIN        CLOUDY    73  59  60 NW21G32   29.93R
$$

...ELSEWHERE IN IOWA...


CITY           SKY/WX    TMP DP  RH WIND       PRES   REMARKS
DES MOINES     PTSUNNY   77  56  48 NW22G31   30.01R
IOWA CITY      PTSUNNY   76  59  55 NW21G30   29.93R
FORT DODGE     PTSUNNY   72  57  60 NW16G23   30.06S
MARSHALLTOWN   MOSUNNY   73  59  61 NW23G32   29.98S
CEDAR RAPIDS   MOSUNNY   75  58  55 NW25G33   29.91S
$$

...NORTHERN ILLINOIS...


CITY           SKY/WX    TMP DP  RH WIND       PRES   REMARKS
CHICAGO-OHARE  MOSUNNY   82  52  35 NW22G33   29.73R
DUPAGE         PTSUNNY   78  55  44 W18G35    29.75R
CHICAGO-MIDWAY PTSUNNY   84  55  36 W21G31    29.72R
MOLINE         MOSUNNY   78  56  46 NW23G36   29.86S
ROCKFORD       PTSUNNY   79  55  43 NW24G35   29.80R
STERLING       MOSUNNY   79  57  47 NW24G35   29.83S
PEORIA         PTSUNNY   81  58  45 NW21G33   29.85R
$$

NOTE: "FAIR" INDICATES FEW OR NO CLOUDS BELOW 12,000 FEET WITH NO
SIGNIFICANT WEATHER AND/OR OBSTRUCTIONS TO VISIBILITY. WIND
SPEEDS ARE IN MILES-PER-HOUR.



USA.gov is the U.S. government's official web portal to all federal, state and local government web resources and services.